Hauptseite
METAR-TAF:

METAR-TAF

Flughäfen :

Vlissingen, Niederlande

Breite: 51-27N, Länge: 3-36E, Höhe: 10 m

Beobachtung

Neuester Wetterbericht von vor 43 Minuten, um 03:55 UTC
Wind 11 kt aus Süd
Temperatur 6°C
Luftfeuchtigkeit 87%
Luftdruck 1021 hPa
Sichtweite: 9000 m

METAR: EHFS 170355Z AUTO 17011KT 9000 NSC 06/04 Q1021 W///H///

Zeit: 05:38 (04:38 UTC)


TAF: fehlend

Wetterbeobachtungen und Prognosen von mehr als 4000 Flughäfen (METAR und TAF Bericht).

Die verfügbaren Stationen werden durch gelbe und rote Markierungen auf der Karte dargestellt.

Führen Sie die Maus auf sie, um den Namen der Station zu sehen.

Darauf klicken, um die Beobachtung von Wetterbeobachtungen und Prognosen zu sehen.

Um die Karte zu ändern : klicken Sie auf den grünen Tasten mit einem schwarzen Kreuz Zum Vergrößern, auf den grünen Button mit einem Gedankenstrich zu verkleinern, oder auf die grünen Pfeile für benachbarte Karten.


METAR-TAF: